Regional Weather Roundup
Issued by NWS

Home | Current Version | Previous Version | Text Only | Print | Product List | Glossary Off
Versions: 1 2 3 4 5 6 7 8 9 10 11 12 13 14 15 16 17 18 19 20 21 22 23 24 25 26 27 28 29 30 31 32 33 34 35 36 37 38 39 40 41 42 43 44 45 46 47 48 49 50

000
ASUS45 KPSR 250610
RWRAZ

ARIZONA HOURLY REGIONAL WEATHER ROUNDUP
NATIONAL WEATHER SERVICE PHOENIX AZ
1100 PM MST WED MAY 24 2017

NOTE: FAIR INDICATES FEW OR NO CLOUDS BELOW 12,000 FEET WITH NO
SIGNIFICANT WEATHER AND/OR OBSTRUCTIONS TO VISIBILITY.

AZZ001>003-036-250700-
NORTHWEST ARIZONA

CITY           SKY/WX    TMP DP  RH WIND       PRES   REMARKS
BULLHEAD CITY  MOCLDY    95  23   7 S10       29.51S
KINGMAN        MOCLDY    75  17  11 MISG      29.71R
6HR MIN TEMP:  75; 6HR MAX TEMP:  95;

$$

AZZ004>008-015-016-018-250700-
NORTH CENTRAL ARIZONA

CITY           SKY/WX    TMP DP  RH WIND       PRES   REMARKS
GRAND CANYON   MOCLDY    63  18  17 SW12      29.91F
6HR MIN TEMP:  62; 6HR MAX TEMP:  80;

WILLIAMS       MOCLDY    64  10  12 SW14G20   29.95F
PRESCOTT       PTCLDY    66  18  15 S8        29.86F
6HR MIN TEMP:  63; 6HR MAX TEMP:  88;

FLAGSTAFF      PTCLDY    64   6  10 SW13G22   29.97S
6HR MIN TEMP:  63; 6HR MAX TEMP:  77;

PAYSON         PTCLDY    75  18  11 SW7G16    29.92S
PAGE           PTCLDY    81  25  12 SW6       29.67R
6HR MIN TEMP:  81; 6HR MAX TEMP:  93;

$$

AZZ009>014-017-250700-
NORTHEAST ARIZONA

CITY           SKY/WX    TMP DP  RH WIND       PRES   REMARKS
WINSLOW        CLEAR     65  24  21 SW6       29.83S
6HR MIN TEMP:  65; 6HR MAX TEMP:  90;

SAINT JOHNS    PTCLDY    69  23  17 W13       29.89S
6HR MIN TEMP:  68; 6HR MAX TEMP:  87;

WINDOW ROCK    PTCLDY    67  24  19 SW16      29.92S
6HR MIN TEMP:  66; 6HR MAX TEMP:  82;

SHOW LOW       MOCLDY    66  21  18 S14       29.97F
$$

AZZ540-542>544-546-548-250700-
GREATER PHOENIX AREA

CITY           SKY/WX    TMP DP  RH WIND       PRES   REMARKS
PHOENIX        MOCLDY    94  28   9 SW6       29.60R
6HR MIN TEMP:  94; 6HR MAX TEMP: 106;

BUCKEYE        PTCLDY    88  25  10 SW12      29.62S
LUKE AFB       PTCLDY    88  33  14 SW14      29.60S
6HR MIN TEMP:  88; 6HR MAX TEMP: 105; 6HR PCP: TRACE;

DEER VALLEY    MOCLDY    89  28  11 SW12      29.62S
6HR MIN TEMP:  89; 6HR MAX TEMP: 103;

SCOTTSDALE     PTCLDY    92  27   9 SW10      29.64R
6HR MIN TEMP:  92; 6HR MAX TEMP: 103;

MESA-GATEWAY   PTCLDY    88  32  13 SW8       29.64S
$$

AZZ539-553-250700-
SOUTHWEST MARICOPA COUNTY AND PINAL COUNTY

CITY           SKY/WX    TMP DP  RH WIND       PRES   REMARKS
CASA GRANDE    CLOUDY    88  27  11 S9        29.66S
6HR MIN TEMP:  88; 6HR MAX TEMP: 105;

GILA BEND      MOCLDY    92  19   7 S18       29.59S
6HR MIN TEMP:  92; 6HR MAX TEMP: 106;

$$

AZZ503-504-507>509-250700-
SOUTHEAST ARIZONA

CITY           SKY/WX    TMP DP  RH WIND       PRES   REMARKS
TUCSON         PTCLDY    85  22  10 S8        29.80R
6HR MIN TEMP:  83; 6HR MAX TEMP: 102;

DAVIS-MONTHAN  MOCLDY    81  25  12 S6        29.79R
6HR MIN TEMP:  80; 6HR MAX TEMP: 100;

NOGALES        PTCLDY    75  21  13 S9        29.91R
6HR MIN TEMP:  74; 6HR MAX TEMP:  96;

SIERRA VISTA   PTCLDY    74  20  13 W13       29.93F
6HR MIN TEMP:  74; 6HR MAX TEMP:  93;

DOUGLAS        PTCLDY    74  18  12 W3        29.89R
6HR MIN TEMP:  72; 6HR MAX TEMP:  96;

SAFFORD        CLEAR     82  22  11 NW18      29.74R
6HR MIN TEMP:  80; 6HR MAX TEMP:  99;

$$

AZZ532-250700-
SOUTHWEST ARIZONA

CITY           SKY/WX    TMP DP  RH WIND       PRES   REMARKS
YUMA           MOCLDY    84  21  10 W8        29.59S
6HR MIN TEMP:  83; 6HR MAX TEMP: 108;

$$

CAZ041-043-047-048-061-525>527-560>570-250700-
SOUTHERN CALIFORNIA

CITY           SKY/WX    TMP DP  RH WIND       PRES   REMARKS
DOWNTOWN L.A.  CLOUDY    60  53  77 CALM      29.85R
6HR MIN TEMP:  60; 6HR MAX TEMP:  68;

L.A. AIRPORT   CLOUDY    59  52  77 SW9       29.85S
6HR MIN TEMP:  58; 6HR MAX TEMP:  63;

SAN DIEGO      CLOUDY    62  52  69 S8        29.89R
6HR MIN TEMP:  61; 6HR MAX TEMP:  67;

BURBANK        CLOUDY    58  51  78 S8        29.84R
6HR MIN TEMP:  58; 6HR MAX TEMP:  73;

ONTARIO        CLOUDY    58  53  84 W14       29.85R
6HR MIN TEMP:  58; 6HR MAX TEMP:  81;

RIVERSIDE      PTCLDY    58  54  86 VRB6      29.85R
6HR MIN TEMP:  58; 6HR MAX TEMP:  82;

PALM SPRINGS   CLEAR     84  29  13 W20G31    29.60R
6HR MIN TEMP:  84; 6HR MAX TEMP: 101;

EL CENTRO NAS  PTCLDY    84  25  11 W26       29.62R
6HR MIN TEMP:  84; 6HR MAX TEMP: 102;

IMPERIAL       LGT RAIN  84  32  15 W21G31    29.58R
6HR MIN TEMP:  84; 6HR MAX TEMP: 101; 6HR PCP: TRACE;

BLYTHE         CLEAR     87  30  13 NW3       29.55R
6HR MIN TEMP:  87; 6HR MAX TEMP: 108;

NEEDLES        PTCLDY    94   6   4 W9        29.53R
6HR MIN TEMP:  94; 6HR MAX TEMP: 109;

$$

NVZ020-UTZ003-250700-
SOUTHERN NEVADA-UTAH

CITY           SKY/WX    TMP DP  RH WIND       PRES   REMARKS
LAS VEGAS      PTCLDY    87  26  11 S14G24    29.55S
6HR MIN TEMP:  87; 6HR MAX TEMP: 100;

SALT LAKE CITY CLOUDY    67  49  52 NW21      29.56R
6HR MIN TEMP:  67; 6HR MAX TEMP:  83; 6HR PCP: TRACE;

$$

NMZ009-TXZ055-250700-
NEW MEXICO-WEST TEXAS

CITY           SKY/WX    TMP DP  RH WIND       PRES   REMARKS
ALBUQUERQUE    CLEAR     74  18  12 W15G23    29.81S
6HR MIN TEMP:  70; 6HR MAX TEMP:  89;

EL PASO        CLEAR     87  10   5 W12       29.77S
6HR MIN TEMP:  87; 6HR MAX TEMP:  95;

$$


........................KEY........................
SKY/WX - SKY CONDITION/WEATHER
TMP    - TEMPERATURE IN FAHRENHEIT
DP     - DEW POINT IN FAHRENHEIT
RH     - RELATIVE HUMIDITY IN PERCENT
WIND   - DIRECTION AND SPEED IN MILES PER HOUR (MPH)
VRB    - VARIABLE WIND DIRECTION
PRES   - MEAN SEA LEVEL PRESSURE IN INCHES OF MERCURY
         F - FALLING PRESSURE   R - RISING PRESSURE
         S - STEADY PRESSURE
VSB    - VISIBILITY IN MILES
HX     - HEAT INDEX IN FAHRENHEIT
WCI    - WIND CHILL INDEX IN FAHRENHEIT
TC     - TEMPERATURE IN CELSIUS WHICH IS ALSO KNOWN AS
         TEMPERATURE IN CENTIGRADE
AFB    - AIR FORCE BASE
         LUKE AFB IS LUKE AIR FORCE BASE
         DAVIS-MONTHAN IS DAVIS-MONTHAN AIR FORCE BASE
NAS    - NAVAL AIR STATION
         EL CENTRO NAS IS EL CENTRO NAVAL AIR STATION
N/A    - NOT AVAILABLE




USA.gov is the U.S. government's official web portal to all federal, state and local government web resources and services.